[[{"header":{"parameterUnit":"m.s-1","parameterCategory":1,"la1":30.2992,"la2":30.254,"lo1":-89.0895,"lo2":-89.0443,"dy":0.0025,"dx":0.0025,"nx":19,"ny":19,"refTime":"2026-04-08T03:00:00:Z","depth":0,"parameterNumber":2,"parameterNumberName":"U-component_of_WINDS"},"data":[0,0,0,-3.3636,-3.3643,-3.3978,-3.3979,-3.44,-3.4403,0,0,0,0,0,0,0,0,0,0,0,-3.353,-3.3532,-3.3636,-3.3644,-3.3978,-3.3979,-3.4399,-3.4403,0,0,0,0,0,0,0,0,0,0,0,-3.3529,-3.3532,-3.3535,-3.3645,-3.3977,-3.3979,-3.4398,-3.4149,0,0,0,0,0,0,0,0,0,0,-3.3826,-3.372,-3.3531,-3.3535,-3.3647,-3.3977,-3.3979,-3.4137,-3.4165,-3.4244,0,-3.431,0,-3.4363,-3.4431,-3.4432,0,0,0,-3.365,-3.3697,-3.3793,-3.3535,-3.365,-3.3976,-3.3829,-3.4153,-3.4184,-3.428,-3.4316,-3.4332,-3.437,-3.4433,-3.4435,-3.4867,-3.4868,0,0,-3.3632,-3.3587,-3.3772,-3.3813,-3.3758,-3.3818,-3.3839,-3.4172,-3.4209,-3.4318,-3.4342,-3.4377,-3.4436,-3.4439,-3.4865,-3.4867,0,0,0,-3.3574,-3.3573,-3.3662,-3.3795,-3.3856,-3.3827,-3.3852,-3.4194,-3.4227,-3.4347,-3.4382,-3.4438,-3.4443,-3.4863,-3.4866,-3.4905,0,0,0,-3.3564,-3.354,-3.3654,-3.363,-3.385,-3.4029,-3.3866,-3.4203,-3.4242,-3.438,-3.4439,-3.4447,-3.4862,-3.4865,-3.49,-3.4931,0,0,0,-3.3511,-3.3534,-3.3579,-3.3626,-3.3768,-3.4024,-3.4076,-3.4213,-3.4264,-3.4432,-3.4449,-3.486,-3.4864,-3.4895,-3.4924,-3.503,0,0,0,-3.3442,-3.3611,-3.3579,-3.3783,-3.3765,-3.4045,-3.4074,-3.4286,-3.4436,-3.4441,-3.4862,-3.4866,-3.4894,-3.4919,-3.5025,-3.511,-3.5142,0,0,-3.363,-3.3632,-3.3755,-3.3737,-3.401,-3.3998,-3.428,-3.4461,-3.452,-3.4749,-3.476,-3.4902,-3.4923,-3.5029,-3.5338,-3.5362,0,0,0,-3.38,-3.3887,-3.397,-3.4109,-3.425,-3.4374,-3.4516,-3.4584,-3.478,-3.4627,-3.4972,-3.4986,-3.505,-3.5093,-3.5114,-3.5171,-3.4884,-3.4884,-3.4883,-3.4,-3.4065,-3.4274,-3.4379,-3.4515,-3.466,-3.4776,-3.4893,-3.492,-3.5001,-3.5068,-3.5247,-3.5295,-3.5311,-3.5371,-3.512,-3.512,-3.5121,-3.5121,-3.4281,-3.4415,-3.4448,-3.4661,-3.473,-3.4912,-3.506,-3.5074,-3.5254,-3.5201,-3.5261,-3.5195,-3.5336,-3.5392,-3.5124,-3.5124,-3.5123,-3.5123,-3.5123,-3.4418,-3.4493,-3.4572,-3.478,-3.4934,-3.5038,-3.5209,-3.5267,-3.5324,-3.5383,-3.546,-3.546,-3.5466,-3.5416,-3.5417,-3.5418,-3.5418,-3.5419,-3.5419,-3.4527,-3.4615,-3.475,-3.4915,-3.5013,-3.5149,-3.5299,-3.5398,-3.5523,-3.5552,-3.5553,-3.5572,-3.5338,-3.5277,-3.5429,-3.5427,-3.5426,-3.5425,-3.5424,-3.4783,-3.4735,-3.4944,-3.5042,-3.5241,-3.5391,-3.5464,-3.5661,-3.5752,-3.5835,-3.5843,-3.5661,-3.5668,-3.5652,-3.5601,-3.5828,-3.5828,-3.5828,-3.5828,-3.4897,-3.4906,-3.5133,-3.5286,-3.5442,-3.553,-3.5767,-3.5887,-3.6005,-3.6065,-3.6042,-3.5981,-3.5962,-3.598,-3.5957,-3.5911,-3.6211,-3.6212,-3.6212,-3.5058,-3.5085,-3.5273,-3.5385,-3.5546,-3.5684,-3.5909,-3.6086,-3.621,-3.6229,-3.6114,-3.6098,-3.6001,-3.5966,-3.5978,-3.5941,-3.5857,0,0]},{"header":{"parameterUnit":"m.s-1","parameterCategory":1,"la1":30.2992,"la2":30.254,"lo1":-89.0895,"lo2":-89.0443,"dy":0.0025,"dx":0.0025,"nx":19,"ny":19,"refTime":"2026-04-08T03:00:00:Z","depth":0,"parameterNumber":3,"parameterNumberName":"V-component_of_WINDS"},"data":[0,0,0,-1.664,-1.6638,-1.6563,-1.6563,-1.6471,-1.6471,0,0,0,0,0,0,0,0,0,0,0,-1.6669,-1.6669,-1.664,-1.6638,-1.6563,-1.6563,-1.6472,-1.6471,0,0,0,0,0,0,0,0,0,0,0,-1.6669,-1.6669,-1.6669,-1.6638,-1.6563,-1.6562,-1.6472,-1.6526,0,0,0,0,0,0,0,0,0,0,-1.6597,-1.6633,-1.6669,-1.6669,-1.6637,-1.6563,-1.6562,-1.6528,-1.6522,-1.6509,0,-1.6503,0,-1.6486,-1.6465,-1.6465,0,0,0,-1.6631,-1.6638,-1.6612,-1.6669,-1.6637,-1.6563,-1.6595,-1.6525,-1.6518,-1.6502,-1.6502,-1.6498,-1.6484,-1.6465,-1.6465,-1.642,-1.642,0,0,-1.6635,-1.6659,-1.6616,-1.6608,-1.6625,-1.6597,-1.6593,-1.6521,-1.6521,-1.6502,-1.6496,-1.6483,-1.6464,-1.6464,-1.642,-1.642,0,0,0,-1.6652,-1.6662,-1.6637,-1.6612,-1.6598,-1.6595,-1.659,-1.6524,-1.6514,-1.6495,-1.6482,-1.6464,-1.6463,-1.642,-1.642,-1.645,0,0,0,-1.6654,-1.6672,-1.6639,-1.6653,-1.66,-1.6561,-1.6595,-1.6519,-1.651,-1.6482,-1.6464,-1.6462,-1.642,-1.642,-1.6449,-1.646,0,0,0,-1.6671,-1.6674,-1.6666,-1.6654,-1.6623,-1.6562,-1.6548,-1.6517,-1.6503,-1.6465,-1.6462,-1.642,-1.642,-1.6448,-1.6458,-1.6455,0,0,0,-1.6696,-1.6692,-1.6667,-1.6656,-1.6624,-1.6582,-1.6548,-1.6514,-1.6486,-1.6463,-1.642,-1.642,-1.6448,-1.6457,-1.6454,-1.6457,-1.6461,0,0,-1.6704,-1.6694,-1.6686,-1.6661,-1.663,-1.6592,-1.6563,-1.6513,-1.6485,-1.6442,-1.6441,-1.6449,-1.6458,-1.6455,-1.6473,-1.6476,0,0,0,-1.6696,-1.669,-1.6677,-1.6653,-1.6616,-1.6584,-1.6537,-1.6517,-1.648,-1.647,-1.6446,-1.6451,-1.6448,-1.6448,-1.6451,-1.6446,-1.6421,-1.6421,-1.6421,-1.674,-1.6708,-1.6692,-1.6651,-1.6627,-1.6577,-1.6553,-1.6518,-1.6491,-1.6486,-1.6473,-1.6489,-1.649,-1.6492,-1.6487,-1.6472,-1.6472,-1.6472,-1.6472,-1.6748,-1.6735,-1.67,-1.6672,-1.6637,-1.6611,-1.6561,-1.6543,-1.6511,-1.6496,-1.6491,-1.6477,-1.6496,-1.649,-1.6474,-1.6474,-1.6473,-1.6473,-1.6473,-1.6773,-1.6762,-1.674,-1.6701,-1.6673,-1.6629,-1.6602,-1.6569,-1.6538,-1.6533,-1.6515,-1.6515,-1.651,-1.6527,-1.6527,-1.6527,-1.6527,-1.6527,-1.6527,-1.6808,-1.6783,-1.6766,-1.6727,-1.6706,-1.6674,-1.6623,-1.66,-1.6566,-1.6544,-1.6544,-1.6516,-1.6505,-1.6503,-1.6528,-1.6528,-1.6528,-1.6528,-1.6528,-1.6828,-1.6819,-1.6793,-1.6772,-1.6722,-1.6695,-1.6654,-1.661,-1.6586,-1.6573,-1.6545,-1.6543,-1.6529,-1.6526,-1.6524,-1.6554,-1.6554,-1.6554,-1.6554,-1.685,-1.684,-1.6806,-1.6775,-1.6741,-1.6701,-1.6668,-1.6626,-1.6581,-1.6563,-1.6554,-1.6548,-1.6547,-1.6534,-1.6531,-1.6529,-1.6558,-1.6558,-1.6558,-1.686,-1.6845,-1.6826,-1.6786,-1.6744,-1.6707,-1.6674,-1.6636,-1.6582,-1.6558,-1.6548,-1.6548,-1.6538,-1.6537,-1.6513,-1.651,-1.6505,0,0]}]]